Vorticity
5 13 8 6 3 -0 -0 -1 2 2 2 5 4 5 4 4 4 2 3 4 0 2 5 1 2 5 3 1 2 -0 8 9 6 5 6 6 3 2 4 4 5 19 -0
11 10 8 6 -1 0 0 1 2 5 1 3 4 4 2 3 2 4 5 5 5 3 4 5 4 5 3 4 6 3 3 -2 4 6 9 7 5 6 2 6 9 -21 2
8 9 8 7 -3 1 1 1 4 2 5 2 2 3 2 3 3 4 4 5 4 4 4 5 5 5 4 5 8 10 13 10 12 11 8 5 13 24 0 -3 0 5 12
10 11 8 4 -1 6 9 7 4 2 3 3 2 4 5 5 6 7 6 5 6 7 6 5 3 4 5 5 8 9 10 11 13 6 5 2 9 -2 3 12 -0 8 7
8 7 5 7 9 6 4 3 2 1 2 4 5 8 9 9 9 9 10 11 11 9 8 6 5 7 8 8 9 8 7 7 7 11 9 -0 -24 41 9 8 12 -3 4
5 5 4 3 1 1 2 2 3 5 6 6 7 8 9 10 10 9 11 13 13 11 9 9 10 11 14 16 14 11 9 5 4 5 7 -2 -5 -4 9 10 5 -3 4
2 2 2 2 2 2 3 5 7 8 10 13 12 11 10 9 8 9 8 10 12 11 11 11 12 9 6 10 11 10 10 8 9 11 15 6 27 19 11 -5 -7 4 7
1 1 1 1 3 5 6 8 10 13 11 4 6 10 9 6 2 3 4 5 4 3 2 4 6 8 6 4 9 12 10 10 8 5 11 -3 -6 9 8 7 2 8 9
2 2 1 3 8 9 10 9 10 4 4 3 6 6 7 3 4 4 6 6 5 4 2 2 3 2 3 2 3 2 1 2 2 2 7 12 5 2 6 5 8 8 0
3 2 5 11 10 9 9 9 10 7 4 6 5 4 4 5 3 3 4 3 3 3 4 4 5 6 5 4 4 4 4 5 5 8 8 8 12 7 8 10 12 10 1
4 4 8 7 6 7 8 8 8 8 8 7 5 5 4 4 5 5 6 6 6 5 4 3 3 4 4 4 5 5 6 6 6 5 4 6 11 8 8 6 5 11 3
7 7 4 4 6 4 5 8 10 11 12 12 11 11 9 11 9 9 8 8 7 7 6 5 5 5 4 4 5 5 3 4 7 4 1 4 5 9 7 8 8 9 12
7 7 5 8 8 6 9 8 5 6 6 3 5 5 6 6 5 6 7 7 8 9 8 11 12 11 11 11 10 7 6 6 7 6 3 6 4 3 5 5 10 7 5
7 6 10 4 4 4 0 -4 1 2 6 6 1 1 5 7 6 5 3 3 5 7 9 10 11 13 13 12 12 14 15 12 9 7 6 7 7 5 4 4 4 3 5
5 4 4 6 2 -0 4 -3 -2 -2 2 1 9 6 3 7 10 9 8 11 13 12 12 13 13 13 12 11 10 8 8 11 12 12 9 8 7 8 7 7 6 5 3
6 4 4 5 1 0 0 1 -5 -4 0 4 3 7 9 4 10 0 13 9 9 8 7 7 6 7 8 8 7 9 11 10 8 6 4 11 8 8 8 9 8 9 8
5 6 5 6 -3 2 1 2 3 -1 -0 3 2 10 10 15 7 8 3 7 6 6 8 5 5 4 3 4 4 6 6 5 5 8 10 7 11 6 7 5 5 6 9
2 5 7 3 -3 3 2 3 2 1 6 6 12 10 9 5 6 4 6 1 -2 -3 -2 8 6 5 4 2 1 2 3 5 6 6 6 6 8 11 10 9 10 9 7
5 6 6 -3 6 3 2 3 3 3 5 -2 1 10 7 5 2 2 0 3 2 0 6 7 9 8 7 6 4 4 3 1 3 2 4 6 8 4 7 8 7 11 12
4 1 11 2 2 3 4 6 5 7 3 2 -3 -2 5 2 2 1 3 3 6 -0 6 6 6 8 9 10 11 10 9 6 3 2 3 4 5 7 7 2 4 6 5
5 3 11 2 4 8 6 5 5 4 -2 3 3 -1 3 -6 -0 2 -4 -3 15 3 14 11 12 7 3 3 3 1 3 8 10 9 7 4 3 8 10 7 4 6 9
9 5 17 11 5 9 0 3 10 3 1 3 4 7 6 3 -3 -0 2 15 9 18 9 7 4 6 7 8 6 8 7 12 12 15 17 14 11 5 9 14 12 14 8
5 1 2 6 8 5 8 4 5 5 1 -2 -3 3 -3 2 9 18 20 13 16 4 7 4 1 1 1 1 7 7 20 2 17 26 15 22 11 11 4 5 9 12 12
4 7 3 7 10 6 8 5 1 -2 1 2 9 3 7 -25 17 7 13 13 10 6 -0 -1 3 9 6 0 10 9 13 13 6 12 17 -14 1 5 22 14 24 8 4
3 7 7 7 4 2 3 8 2 6 6 -1 -3 25 24 10 13 8 13 5 6 6 -1 -1 8 7 7 12 11 8 9 8 22 0 12 5 19 -5 4 -22 17 -3 13
10 11 10 9 11 13 0 -6 14 21 30 22 -2 12 9 10 8 7 5 7 5 2 2 10 10 13 15 14 15 22 25 29 21 22 20 27 0 -10 -3 22 26 25 5
Height
3163 3164 3167 3168 3169 3169 3170 3170 3170 3169 3169 3170 3169 3171 3170 3168 3166 3168 3166 3164 3164 3166 3163 3162 3162 3161 3162 3162 3159 3160 3160 3160 3159 3159 3160 3160 3162 3161 3161 3161 3162 3159 3160
3162 3164 3166 3167 3168 3169 3170 3170 3170 3170 3169 3169 3169 3170 3169 3166 3167 3166 3165 3164 3162 3163 3162 3160 3159 3160 3160 3159 3157 3157 3159 3159 3158 3159 3160 3160 3160 3161 3158 3159 3161 3154 3156
3162 3164 3165 3167 3168 3168 3168 3168 3169 3169 3169 3169 3169 3169 3167 3166 3166 3165 3165 3162 3161 3161 3160 3158 3157 3158 3156 3155 3155 3155 3155 3155 3156 3156 3158 3158 3157 3148 3156 3157 3158 3156 3158
3163 3165 3167 3168 3169 3169 3170 3169 3168 3168 3169 3168 3166 3166 3165 3163 3163 3163 3161 3159 3159 3158 3157 3155 3155 3154 3153 3152 3152 3152 3151 3151 3152 3154 3155 3156 3154 3152 3154 3155 3155 3155 3156
3165 3166 3167 3167 3169 3169 3169 3169 3170 3168 3166 3167 3166 3164 3165 3162 3161 3161 3160 3158 3157 3155 3154 3153 3153 3152 3150 3149 3150 3149 3148 3148 3149 3151 3152 3151 3145 3145 3150 3151 3152 3154 3154
3166 3167 3168 3169 3170 3169 3169 3169 3167 3167 3167 3165 3163 3162 3160 3160 3160 3159 3157 3155 3153 3153 3152 3150 3149 3148 3147 3147 3147 3146 3146 3146 3147 3147 3147 3140 3142 3144 3148 3150 3149 3151 3152
3168 3168 3168 3169 3169 3169 3168 3168 3167 3164 3164 3162 3161 3160 3160 3159 3159 3158 3157 3155 3153 3152 3151 3150 3148 3147 3145 3144 3144 3143 3144 3144 3144 3144 3142 3130 3124 3132 3143 3145 3147 3147 3146
3167 3168 3168 3168 3169 3167 3166 3169 3166 3165 3164 3161 3161 3160 3159 3158 3158 3157 3156 3155 3153 3152 3150 3149 3148 3146 3145 3144 3143 3142 3141 3141 3142 3142 3142 3135 3121 3127 3139 3141 3142 3143 3143
3167 3168 3167 3167 3167 3166 3165 3166 3166 3165 3164 3163 3161 3160 3158 3158 3157 3156 3155 3154 3152 3151 3149 3148 3146 3145 3144 3143 3142 3142 3141 3140 3140 3138 3137 3134 3131 3135 3136 3137 3137 3138 3140
3169 3169 3168 3167 3166 3165 3166 3165 3165 3165 3164 3162 3161 3160 3159 3158 3156 3155 3154 3152 3150 3149 3147 3146 3144 3143 3141 3140 3140 3139 3138 3137 3137 3136 3133 3131 3131 3131 3132 3132 3133 3134 3135
3168 3167 3168 3168 3167 3166 3165 3164 3164 3163 3162 3161 3160 3159 3158 3156 3154 3152 3151 3149 3147 3146 3144 3143 3141 3139 3137 3137 3136 3135 3135 3133 3133 3132 3127 3130 3128 3127 3127 3127 3128 3129 3130
3166 3167 3167 3168 3168 3167 3166 3165 3165 3164 3163 3161 3159 3158 3157 3155 3152 3151 3148 3147 3144 3143 3141 3139 3137 3136 3133 3132 3129 3129 3130 3128 3128 3127 3122 3126 3125 3124 3123 3123 3124 3125 3126
3168 3167 3168 3167 3168 3166 3165 3164 3165 3164 3163 3161 3158 3158 3156 3153 3150 3148 3145 3143 3140 3138 3137 3134 3132 3130 3129 3128 3127 3125 3124 3123 3123 3121 3116 3121 3119 3119 3119 3119 3119 3120 3121
3170 3170 3166 3165 3167 3166 3165 3164 3165 3164 3162 3160 3158 3156 3155 3152 3149 3147 3144 3141 3138 3135 3133 3130 3128 3126 3124 3123 3121 3120 3119 3118 3117 3116 3110 3114 3114 3113 3113 3114 3114 3115 3115
3171 3170 3168 3165 3166 3165 3163 3163 3163 3163 3162 3160 3157 3155 3153 3151 3148 3145 3142 3139 3135 3132 3130 3127 3125 3122 3120 3118 3117 3116 3113 3112 3112 3111 3108 3106 3107 3107 3107 3108 3108 3109 3109
3171 3170 3167 3166 3164 3163 3161 3162 3162 3161 3160 3157 3154 3153 3150 3148 3145 3143 3140 3136 3133 3130 3127 3124 3122 3119 3117 3114 3112 3110 3109 3107 3105 3104 3103 3097 3100 3100 3099 3100 3101 3102 3103
3169 3169 3166 3164 3161 3161 3160 3160 3159 3158 3156 3153 3151 3149 3147 3144 3141 3138 3135 3132 3129 3127 3124 3121 3118 3114 3112 3110 3107 3103 3101 3100 3098 3096 3096 3094 3089 3092 3091 3091 3092 3093 3095
3168 3167 3165 3163 3160 3160 3158 3158 3157 3154 3152 3149 3146 3144 3142 3139 3137 3135 3132 3129 3126 3124 3121 3118 3114 3110 3107 3104 3101 3098 3097 3094 3091 3088 3087 3086 3086 3081 3081 3083 3084 3084 3085
3165 3164 3163 3159 3158 3156 3155 3155 3153 3151 3149 3146 3143 3141 3138 3135 3132 3129 3127 3125 3121 3117 3115 3112 3109 3105 3102 3100 3097 3094 3090 3085 3083 3081 3078 3076 3078 3077 3074 3070 3073 3075 3077
3160 3159 3161 3157 3155 3154 3152 3152 3150 3147 3144 3141 3140 3138 3134 3130 3127 3124 3121 3118 3115 3111 3107 3105 3101 3098 3095 3091 3089 3087 3084 3083 3078 3074 3071 3069 3066 3063 3066 3065 3062 3066 3067
3156 3157 3158 3152 3152 3152 3150 3148 3146 3143 3140 3138 3135 3130 3127 3124 3121 3117 3113 3109 3106 3102 3099 3096 3093 3089 3086 3085 3079 3076 3073 3071 3069 3067 3066 3062 3060 3057 3052 3054 3051 3057 3052
3153 3152 3152 3150 3150 3148 3144 3142 3141 3139 3135 3132 3128 3124 3121 3116 3113 3109 3104 3100 3097 3092 3089 3086 3083 3079 3077 3075 3070 3066 3060 3058 3058 3054 3052 3053 3052 3051 3048 3043 3041 3042 3048
3151 3150 3149 3147 3145 3143 3140 3137 3134 3131 3128 3125 3120 3117 3113 3110 3106 3101 3095 3090 3086 3081 3078 3074 3071 3067 3062 3061 3060 3055 3050 3045 3047 3047 3048 3039 3039 3038 3038 3038 3033 3031 3034
3148 3147 3146 3143 3140 3138 3136 3130 3129 3126 3121 3117 3111 3107 3103 3099 3095 3091 3085 3080 3076 3072 3068 3064 3060 3055 3051 3047 3044 3043 3039 3037 3032 3028 3033 3034 3029 3028 3025 3027 3027 3020 3023
3145 3144 3142 3139 3135 3133 3130 3127 3123 3117 3112 3107 3102 3098 3095 3087 3084 3079 3073 3069 3066 3062 3056 3052 3046 3042 3038 3033 3030 3025 3023 3021 3022 3015 3011 3016 3022 3015 3014 3012 3017 3012 3007
3141 3139 3137 3134 3129 3128 3124 3120 3116 3111 3104 3099 3094 3089 3082 3077 3072 3067 3062 3058 3053 3048 3042 3037 3031 3027 3022 3017 3014 3010 3007 3005 3004 3002 3000 3002 3004 3006 3003 3000 2997 2999 2998